Location: Beetenbrück
(52.8113°N, 9.5946°E)
Time: 16:31:18
(UTC+00:00)

Sich 1 Rocket - Pass Details

Date: 14 April 2026
Orbit: 610 x 646 km, 82.5° (Epoch: 9 May)

Event Time Altitude Azimuth Distance (km) Brightness Sun altitude
Exits shadow 23:39:35 49° 323° (NW) 813 4.3 -27.4°
Drops below altitude 10° 23:43:11 10° 4° (N) 1,995 7.2 -27.3°
Sets 23:45:27 0° 9° (N) 2,901 8.3 -27.3°
